Location: Melizzano
(41.1500°N, 14.5000°E)
Time: 05:08:42
(UTC+00:00)

Cosmos 1709 Rocket - Pass Details

Date: 01 October 2021
Orbit: 947 x 1002 km, 82.9° (Epoch: 16 October)

Event Time Altitude Azimuth Distance (km) Brightness Sun altitude
Rises 03:54:43 0° 346° (NNW) 3,628 6.9 -12.8°
Reaches altitude 10° 03:57:17 10° 341° (NNW) 2,682 6.2 -12.4°
Maximum altitude 04:03:06 47° 269° (W) 1,239 4.2 -11.3°
Drops below altitude 10° 04:08:57 10° 198° (SSW) 2,690 6.1 -10.2°
Sets 04:11:32 0° 192° (SSW) 3,641 6.8 -9.7°
